TimeCDT,TemperatureF,Dew PointF,Humidity,Sea Level PressureIn,VisibilityMPH,Wind Direction,Wind SpeedMPH,Gust SpeedMPH,PrecipitationIn,Events,Conditions,WindDirDegrees,DateUTC
12:53 AM,52.0,50.0,93,-9999,10.0,ESE,20.7,28.8,N/A,,Overcast,120,2013-05-25 05:53:00
1:53 AM,53.1,50.0,89,-9999,10.0,SE,16.1,-,N/A,,Overcast,130,2013-05-25 06:53:00
2:53 AM,53.1,50.0,89,-9999,10.0,SE,15.0,-,N/A,,Overcast,130,2013-05-25 07:53:00
3:20 AM,53.6,50.0,88,-9999,10.0,ESE,13.8,-,N/A,,Overcast,120,2013-05-25 08:20:00
3:53 AM,53.1,50.0,89,-9999,10.0,SE,11.5,-,N/A,,Overcast,130,2013-05-25 08:53:00
4:07 AM,53.6,50.0,88,-9999,10.0,SE,11.5,-,N/A,,Overcast,130,2013-05-25 09:07:00
4:53 AM,53.1,50.0,89,-9999,10.0,SE,11.5,-,N/A,,Overcast,130,2013-05-25 09:53:00
5:53 AM,54.0,50.0,86,30.10,10.0,ESE,12.7,-,N/A,,Overcast,120,2013-05-25 10:53:00
6:53 AM,54.0,50.0,86,30.11,10.0,ESE,9.2,-,N/A,,Overcast,120,2013-05-25 11:53:00
7:53 AM,55.9,50.0,80,30.11,10.0,ESE,13.8,-,N/A,,Overcast,120,2013-05-25 12:53:00
8:53 AM,59.0,51.1,75,30.11,10.0,SE,16.1,23.0,N/A,,Mostly Cloudy,140,2013-05-25 13:53:00
9:45 AM,60.8,51.8,72,-9999,10.0,SSE,17.3,24.2,N/A,,Overcast,150,2013-05-25 14:45:00
9:53 AM,60.1,51.1,72,30.11,10.0,SSE,18.4,-,N/A,,Overcast,150,2013-05-25 14:53:00
10:53 AM,61.0,50.0,67,30.11,10.0,SSE,13.8,-,N/A,,Overcast,160,2013-05-25 15:53:00
11:31 AM,62.6,51.8,68,-9999,10.0,SSE,12.7,-,N/A,,Overcast,160,2013-05-25 16:31:00
11:53 AM,63.0,51.1,65,30.10,10.0,SSE,15.0,23.0,N/A,,Overcast,150,2013-05-25 16:53:00
12:53 PM,66.9,51.1,57,30.09,10.0,SSE,18.4,25.3,N/A,,Overcast,150,2013-05-25 17:53:00
1:53 PM,66.9,51.1,57,30.08,10.0,SE,19.6,25.3,N/A,,Scattered Clouds,140,2013-05-25 18:53:00
2:53 PM,71.1,51.1,49,30.07,10.0,SSE,15.0,27.6,N/A,,Mostly Cloudy,150,2013-05-25 19:53:00
3:53 PM,71.1,51.1,49,30.06,10.0,SE,20.7,29.9,N/A,,Mostly Cloudy,140,2013-05-25 20:53:00
4:53 PM,72.0,50.0,46,30.06,10.0,SE,21.9,28.8,N/A,,Mostly Cloudy,140,2013-05-25 21:53:00
5:53 PM,70.0,50.0,49,30.06,10.0,SSE,18.4,26.5,N/A,,Mostly Cloudy,150,2013-05-25 22:53:00
6:53 PM,68.0,50.0,52,30.07,10.0,SSE,19.6,25.3,N/A,,Overcast,150,2013-05-25 23:53:00
7:53 PM,64.9,51.1,61,30.07,10.0,South,13.8,-,N/A,,Mostly Cloudy,170,2013-05-26 00:53:00
8:53 PM,62.1,52.0,70,30.09,10.0,South,9.2,-,N/A,,Overcast,190,2013-05-26 01:53:00
9:53 PM,57.9,52.0,81,30.11,10.0,South,8.1,-,N/A,,Mostly Cloudy,190,2013-05-26 02:53:00
10:53 PM,57.9,51.1,78,30.12,10.0,South,10.4,-,N/A,,Overcast,190,2013-05-26 03:53:00
11:53 PM,55.9,50.0,80,-9999,10.0,South,9.2,-,N/A,,Clear,180,2013-05-26 04:53:00